www.pogodaiklimat.ru

Погода и климат >> Архив погоды >> Россия >> Крым >> Мысовое


ПОГОДА в Мысовом

  • Прогноз погоды в Мысовом
  • Монитор погоды в Мысовом

АРХИВ ПОГОДЫ в Мысовом

Время (UTC), дата Ветер
(напр.,м/с)
 
Видим.   Явления Облачность Т
(С)
Тd
(С)
f
(%)
Тe
(С)
Тes
(С)
Комфортность P
(гПа)
Po
(гПа)
Тmin
(С)
Tmax
(С)
R
(мм)
R24
(мм)
S
(см)
03 13.08 В 6 20 км ясно +24.0 +17.4 67 +28 +28 душно 1018.2 1016.7 +22.7
06 13.08 В 5 50 км ясно +25.7 +13.5 47 +28 +32 жарко 1018.0 1016.5 +22.7
09 13.08 В 6
{11}
50 км ясно +27.0 +12.9 42 +29 +35 жарко 1017.7 1016.2
12 13.08 В 7-11
{12}
50 км ясно +27.1 +12.8 41 +29 +32 жарко 1016.6 1015.1
15 13.08 В 8-11
{13}
50 км ясно +26.3 +13.9 46 +28 +29 жарко 1015.7 1014.2
18 13.08 СВ 6
{12}
50 км ясно +24.6 +15.9 58 +28 +28 душно 1015.2 1013.7 +27.8
21 13.08 СВ 6
{11}
50 км ясно +25.1 +16.9 60 +29 +29 душно 1014.5 1013.0
00 14.08 В 7
{10}
50 км ясно +25.1 +14.4 51 +28 +28 жарко 1013.7 1012.2
03 14.08 В 8-13
{15}
50 км ясно +24.5 +14.9 55 +27 +27 жарко 1012.8 1011.3 +24.2
06 14.08 В 9-14
{14}
50 км ясно +25.2 +11.1 41 +26 +27 жарко 1012.6 1011.1 +24.2
09 14.08 В 10-15
{15}
50 км ясно +26.9 +14.9 48 +30 +30 душно 1011.5 1010.0
12 14.08 В 11-17
{18}
50 км ясно +28.2 +15.1 45 +31 +31 душно 1010.6 1009.1
15 14.08 В 9-14
{17}
50 км ясно +27.7 +17.1 52 +32 +32 очень
душно
1009.3 1007.8
18 14.08 В 5
{10}
50 км ясно +25.5 +19.6 70 +31 +31 очень
душно
1009.1 1007.6 +28.6
21 14.08 В 3 50 км ясно +24.1 +19.4 75 +29 +29 душно 1008.4 1006.9
00 15.08 В 6 50 км ясно +24.5 +13.8 51 +27 +27 жарко 1007.2 1005.7
03 15.08 В 4 20 км 6/0
[Ci sp]
+23.4 +15.8 62 +28 +28 душно 1006.7 1005.2 +23.0
06 15.08 С 3 20 км 10/0
[Ci fib]
+25.7 +13.5 47 +28 +32 жарко 1007.1 1005.6 +23.0
09 15.08 СЗ 3 20 км 10/0
[Ac trans Cc]
+26.2 +13.3 45 +28 +38 жарко 1007.2 1005.7
12 15.08 СЗ 4 20 км 8/0
[Ac trans Cc]
+26.5 +15.6 51 +30 +36 душно 1007.0 1005.5
15 15.08 СЗ 7 20 км 4/0
[Ac trans Cc]
+25.7 +16.8 58 +29 +30 душно 1007.3 1005.8
18 15.08 С 6
{11}
20 км 8/0
[Ac trans Cc]
+26.0 +19.5 67 +31 +31 очень
душно
1007.1 1005.6 +27.1
21 15.08 СЗ 3 20 км 9/4
[Sc Ac trans Ci sp]
+25.2 +23.1 88 +34 +34 очень
душно
1007.2 1005.7
00 16.08 СЗ 6 20 км 9/3 600 м
[Sc Ac trans Ci sp]
+24.6 +22.1 86 +32 +32 очень
душно
1007.3 1005.8
03 16.08 СЗ 6
{10}
20 км 9/4 600 м
[Cb calv Ac trans Cc]
+25.1 +17.8 64 +29 +29 душно 1007.3 1005.8 +24.4
06 16.08 СЗ 5
{11}
20 км {ливн. осадки} 10/5 600 м
[Sc Ac und]
+24.7 +18.6 69 +29 +30 душно 1007.8 1006.3 +24.4 0.0
09 16.08 СЗ 6
{11}
20 км 10/4 600 м
[Sc Ac trans Ci sp]
+25.3 +19.4 70 +31 +32 очень
душно
1008.6 1007.1
12 16.08 СЗ 7-10
{11}
20 км 10/5 600 м
[Cb calv Ac und]
+24.9 +18.5 68 +30 +30 душно 1008.0 1006.5
15 16.08 З 6
{10}
20 км 10/10 600 м
[Cb calv]
+25.1 +19.4 71 +30 +30 душно 1008.2 1006.7 0.0
18 16.08 З 6
{11}
20 км {ливн. осадки} 10/8 600 м
[Cb calv Ac trans Ci sp]
+24.5 +19.1 72 +29 +29 душно 1009.2 1007.7 +26.6 0.0
21 16.08 З 6
{10}
20 км {ливн. осадки} 10/3 600 м
[Cb calv Ac trans Ci sp]
+23.7 +20.0 80 +29 +29 душно 1009.3 1007.8
00 17.08 СЗ 13-16
{16}
20 км {ливн. осадки} 10/9 600 м
[Cb calv Ac und]
+23.7 +19.8 79 +29 +29 душно 1008.5 1007.0
03 17.08 СЗ 7
{16}
10 км в посл. час ливневой дождь 10/8 600 м
[Cb calv Ac trans Ci sp]
+21.3 +20.2 93 +26 +26 душно 1009.5 1008.0 +20.3 2
06 17.08 З 10-13
{13}
20 км {ливн. осадки} 6/6 600 м
[Sc]
+21.7 +17.3 76 +26 +26 душно 1010.3 1008.8 +20.3 2
09 17.08 СЗ 9-11
{13}
20 км 5/5 600 м
[Sc]
+22.0 +16.6 71 +26 +27 душно 1011.0 1009.5
12 17.08 СЗ 6
{12}
50 км 1/0
[Ci sp]
+23.3 +15.1 60 +27 +32 душно 1011.1 1009.6
15 17.08 С 4 50 км 3/0
[Cc]
+24.3 +13.5 51 +27 +27 жарко 1010.9 1009.4
18 17.08 СЗ 6 50 км 9/3 600 м
[Sc Ci sp]
+24.1 +12.0 47 +26 +26 жарко 1010.9 1009.4 +24.4
21 17.08 З 8-10
{11}
20 км 3/1 600 м
[Sc Ci sp]
+23.2 +15.7 63 +28 +28 душно 1010.9 1009.4
00 18.08 С 5
{13}
20 км 8/3 600 м
[Sc Ci sp]
+22.1 +15.2 65 +26 +26 душно 1010.8 1009.3
03 18.08 С 4 20 км 8/4 600 м
[Cu Sc Ac trans Ci sp]
+21.6 +15.4 68 +25 +25 комфорт 1011.0 1009.5 +21.6
06 18.08 С 4 20 км 10/8 600 м
[Cb calv Ac cast Ci sp]
+22.0 +14.6 63 +25 +26 комфорт 1011.6 1010.1 +21.4
09 18.08 С 6 20 км 8/6 600 м
[Cb calv Ac cast]
+22.6 +16.0 66 +27 +28 душно 1012.3 1010.8
12 18.08 С 5 20 км 8/8 600 м
[Cb calv Ac As Ci sp]
+22.1 +15.0 64 +26 +27 душно 1013.3 1011.8
15 18.08 СЗ 6 10 км 10/8 600 м
[Cb calv Ac und]
+21.7 +14.9 65 +25 +25 комфорт 1013.2 1011.7
18 18.08 СЗ 7 20 км в посл. час ливневой дождь 10/10 600 м
[Cb calv]
+21.9 +16.5 71 +26 +26 душно 1014.3 1012.8 +23.5 0.0
21 18.08 С 4
{10}
20 км 9/8 600 м
[Cb calv Ac trans]
+22.4 +15.7 66 +26 +26 жарко 1014.4 1012.9
00 19.08 С 4 20 км 6/6 600 м
[Sc]
+22.0 +16.6 71 +26 +26 душно 1014.8 1013.3
03 19.08 С 5 20 км 3/1 600 м
[Sc Cc]
+21.6 +17.9 79 +26 +26 душно 1015.2 1013.7 +21.4 0.0
06 19.08 С 4 20 км 8/3 600 м
[Sc Ac trans Cc]
+22.1 +18.0 78 +27 +29 душно 1015.8 1014.3 +21.2
09 19.08 С 5 20 км 6/3 600 м
[Cu med, cong Cc]
+24.0 +18.5 71 +28 +33 душно 1016.6 1015.1
15 19.08 С 2 20 км ясно +24.1 +17.2 65 +28 +29 душно 1016.5 1015.0
18 19.08 С 2 20 км 8/0
[Ac trans Ci sp]
+23.1 +18.3 74 +29 +29 очень
душно
1017.6 1016.1 +24.7

 

Местоположение метеостанции Мысовое (Крым, Россия): широта 45.45 долгота 35.82 высота над уровнем моря 13 м.

В архиве по умолчанию представлена погода в Мысовом за последнюю неделю. Архивные данные за месяц целиком и за предыдущие месяцы, начиная с января 2011 года, Вы можете получить, выбрав интересующий диапазон дат из раскрывающегося списка и нажав кнопку "Ввод!".


*Определитесь, кто Вы:
робот инопланетянин человек

Внимание! Время в таблицах - всемирное. Для получения местного времени необходимо прибавить поправку, которая равна 3 ч.

Смотрите также архив погоды в соседних городах и на ближайших метеорологических станциях:

Погода в Владиславовке (Крым, Россия) (46 км)
Погода в Керчи (Крым, Россия) (48 км)
Погода в Феодосии (Крым, Россия) (58 км)
Погода в Опасном (Крым, Россия) (64 км)
Погода в Тамани (Краснодарский край, Россия) (75 км)
Погода в Карадаге (Крым, Россия) (78 км)
Погода в Нижнегорском (Крым, Россия) (85 км)
Погода в Стрелковом (Херсонская область, Украина) (100 км)
Погода в Белогорске (Крым, Россия) (105 км)
Погода в Геническе (Херсонская область, Украина) (111 км)

Пояснения к столбцам:

Ветер - указаны скорость ветра в м/с - средняя за 10 мин, порывы в срок и между сроками (в фигурных скобках) и направление, откуда дует ветер: С - северный, СВ - северо-восточный, В - восточный, ЮВ - юго-восточный, Ю - южный, ЮЗ - юго-западный, З - западный, СЗ - северо-западный.
Видимость - горизонтальная дальность видимости в метрах или километрах. При видимости от 1 до 10 км при отсутствии осадков обычно наблюдается дымка, при ухудшении видимости до 1 км и менее - туман. В сухую погоду видимость может ухудшаться дымом, пылью или мглою.
Явления - указаны атмосферные явления, наблюдавшиеся в срок или в последний час перед сроком; фигурными скобками обозначены явления, наблюдавшиеся между сроками (за 1-3 часа до срока); квадратными скобками обозначены град или гололедные отложения с указанием их диаметра в мм.
Облачность - указаны через наклонную черту общая и нижняя облачность в баллах и высота нижней границы облаков в метрах; квадратными скобками обозначены формы облаков: Ci - перистые, Cs - перисто-слоистые, Cc - перисто-кучевые, Ac - высококучевые, As - высокослоистые, Sc - слоисто-кучевые, Ns - слоисто-дождевые, Cu - кучевые, Cb - кучево-дождевые. Подробнее классификацию облаков см. в Атласе облаков (PDF).
T - Температура воздуха - температура, измеренная на высоте 2 м над землей.
Td - Температура точки росы - температура, при понижении до которой содержащийся в воздухе водяной пар достигнет насыщения.
f - Относительная влажность воздуха - влажноcть воздуха, измеренная на высоте 2 м над землей.
Te - Эффективная температура - температура, которую ощущает одетый по сезону человек в тени. Характеристика душности погоды. При расчете учитывается влияние влажности воздуха и скорости ветра на теплоощущения человека.
Tes - Эффективная температура на солнце - температура, которую ощущает человек, с поправкой на солнечный нагрев. Характеристика знойности погоды. Зависит от высоты солнца над горизонтом, облачности и скорости ветра. Ночью, в пасмурную погоду, а также при ветре 12 м/с и более поправка равна нулю.
P - Атмосферное давление - приведенное к уровню моря атмосферное давление.
Po - Атмосферное давление - измеренное на уровне метеостанции атмосферное давление.
Tmin - Минимальная температура - минимум температуры воздуха на высоте 2 м над землей.
Tmax - Максимальная температура - максимум температуры воздуха на высоте 2 м над землей.
R - Количество осадков - Количество выпавших осадков за период времени, мм. При наведении курсора мыши на число - период времени, за который выпало указанное количество осадков.
R24 - Количество осадков - Количество выпавших осадков за 24 часа, мм.
S - Снежный покров - Высота снежного покрова, см. При наведении курсора мыши на число - состояние снежного покрова и степень покрытия местности в баллах.